DeKalb, IL

9:09 AM CST on January 18, 2018 (GMT -0600)
De Kalb Taylor Municipal

Weather History for KDKB - January, 2012

Change the Weather History Date:

Tuesday, January 24, 2012

  Actual Average (KARR) Record (KARR)
Temperature  
Mean Temperature 28 °F -  
Max Temperature 32 °F 26 °F 43 °F (2010)
Min Temperature 25 °F 12 °F -17 °F (2008)
Degree Days  
Heating Degree Days 36    
Moisture  
Dew Point 22 °F    
Average Humidity 75    
Maximum Humidity 80    
Minimum Humidity 69    
Precipitation  
Precipitation 0.00 in - - ()
Sea Level Pressure  
Sea Level Pressure 30.12 in    
Wind  
Wind Speed 14 mph (West)    
Max Wind Speed 18 mph    
Max Gust Speed 25 mph    
Visibility 10 miles    
Events      
Averages and records for this station are not official NWS values.
T = Trace of Precipitation, MM = Missing Value Source: NWS Daily Summary

Daily Weather History Graph

Daily Weather History Graph

Search for Another Location

Airport or City:

Trip Planner

Search our weather history database for the weather conditions in past years. The results will help you decide how hot, cold, wet, or windy it might be!

Date:

Astronomy

Jan. 24, 2012 Rise Set
Actual Time 7:15 AM CST 4:59 PM CST
Civil Twilight 6:44 AM CST 5:29 PM CST
Nautical Twilight 6:10 AM CST 6:03 PM CST
Astronomical Twilight 5:37 AM CST 6:36 PM CST
Moon 7:42 AM CST (1/24) 6:53 PM CST (1/24)
Length of Visible Light 10h 44m
Length of Day
9h 44m
New Moon, 2% of the Moon is Illuminated
Jan 24
New Moon
Jan 30
First Quarter
Feb 7
Full
Feb 14
Last Quarter
Feb 21
New

Hourly Weather History & Observations

Time (CST) Temp. Windchill Dew Point Humidity Pressure Visibility Wind Dir Wind Speed Gust Speed Precip Events Conditions
12:15 AM 29.1 °F 17.1 °F 22.5 °F 76% 29.91 in 10.0 mi West 17.3 mph 24.2 mph N/A   Overcast
12:35 AM 29.1 °F 17.5 °F 22.6 °F 77% 29.92 in 10.0 mi WSW 16.1 mph - N/A   Overcast
12:55 AM 29.1 °F 17.5 °F 22.6 °F 77% 29.93 in 10.0 mi West 16.1 mph 25.3 mph N/A   Overcast
1:15 AM 28.4 °F 15.8 °F 23.0 °F 80% 29.94 in 10.0 mi WSW 18.4 mph 24.2 mph N/A   Overcast
1:35 AM 28.9 °F 16.9 °F 22.3 °F 76% 29.95 in 10.0 mi West 17.3 mph 24.2 mph N/A   Overcast
1:55 AM 28.9 °F 16.5 °F 22.1 °F 76% 29.96 in 10.0 mi West 18.4 mph 24.2 mph N/A   Overcast
2:15 AM 28.4 °F 17.0 °F 21.2 °F 74% 29.96 in 10.0 mi West 15.0 mph 25.3 mph N/A   Overcast
2:35 AM 28.6 °F 17.2 °F 21.9 °F 76% 29.96 in 10.0 mi West 15.0 mph - N/A   Overcast
2:55 AM 28.4 °F 16.6 °F 21.9 °F 77% 29.96 in 10.0 mi WSW 16.1 mph 19.6 mph N/A   Overcast
3:15 AM 28.4 °F 16.6 °F 21.7 °F 76% 29.98 in 10.0 mi West 16.1 mph 23.0 mph N/A   Overcast
3:35 AM 28.4 °F 16.6 °F 21.2 °F 74% 29.98 in 10.0 mi WSW 16.1 mph 21.9 mph N/A   Overcast
3:55 AM 28.4 °F 16.6 °F 21.2 °F 74% 29.99 in 10.0 mi WSW 16.1 mph 20.7 mph N/A   Overcast
4:15 AM 27.9 °F 17.3 °F 21.6 °F 77% 30.00 in 10.0 mi WSW 12.7 mph - N/A   Overcast
4:35 AM 27.5 °F 16.3 °F 21.0 °F 77% 30.01 in 10.0 mi West 13.8 mph 24.2 mph N/A   Mostly Cloudy
4:55 AM 26.6 °F 14.3 °F 20.5 °F 78% 30.02 in 10.0 mi West 16.1 mph 21.9 mph N/A   Scattered Clouds
5:15 AM 26.4 °F 14.0 °F 20.3 °F 78% 30.04 in 10.0 mi West 16.1 mph - N/A   Clear
5:35 AM 26.2 °F 14.7 °F 20.1 °F 78% 30.04 in 10.0 mi West 13.8 mph 19.6 mph N/A   Clear
5:55 AM 25.7 °F 14.6 °F 19.8 °F 78% 30.06 in 10.0 mi West 12.7 mph 18.4 mph N/A   Clear
6:15 AM 25.7 °F 14.6 °F 19.6 °F 78% 30.07 in 10.0 mi West 12.7 mph - N/A   Clear
6:35 AM 25.7 °F 14.0 °F 19.6 °F 78% 30.08 in 10.0 mi West 13.8 mph 18.4 mph N/A   Clear
6:55 AM 25.3 °F 13.6 °F 19.4 °F 78% 30.09 in 10.0 mi West 13.8 mph - N/A   Clear
7:15 AM 25.5 °F 14.3 °F 19.4 °F 78% 30.10 in 7.0 mi West 12.7 mph 19.6 mph N/A   Clear
7:35 AM 25.9 °F 14.3 °F 20.1 °F 79% 30.11 in 7.0 mi West 13.8 mph - N/A   Mostly Cloudy
7:55 AM 26.6 °F 15.2 °F 21.2 °F 80% 30.12 in 7.0 mi West 13.8 mph - N/A   Overcast
8:15 AM 27.3 °F 15.6 °F 21.2 °F 78% 30.13 in 7.0 mi West 15.0 mph - N/A   Overcast
8:35 AM 27.5 °F 16.8 °F 21.2 °F 77% 30.14 in 10.0 mi West 12.7 mph 19.6 mph N/A   Overcast
8:55 AM 27.9 °F 15.9 °F 21.2 °F 76% 30.14 in 10.0 mi West 16.1 mph 20.7 mph N/A   Overcast
9:15 AM 28.2 °F 16.8 °F 21.4 °F 76% 30.16 in 10.0 mi West 15.0 mph 20.7 mph N/A   Overcast
9:35 AM 28.4 °F 18.5 °F 21.7 °F 76% 30.17 in 10.0 mi West 11.5 mph 16.1 mph N/A   Overcast
9:55 AM 29.1 °F 18.9 °F 21.9 °F 74% 30.17 in 10.0 mi West 12.7 mph - N/A   Overcast
10:15 AM 29.7 °F 21.3 °F 22.1 °F 73% 30.18 in 10.0 mi West 9.2 mph - N/A   Overcast
10:35 AM 30.2 °F 21.9 °F 22.6 °F 73% 30.19 in 10.0 mi WNW 9.2 mph - N/A   Scattered Clouds
10:55 AM 30.9 °F 20.7 °F 22.8 °F 72% 30.19 in 10.0 mi West 13.8 mph - N/A   Mostly Cloudy
11:15 AM 31.1 °F 21.4 °F 23.0 °F 72% 30.19 in 10.0 mi West 12.7 mph - N/A   Scattered Clouds
11:35 AM 31.8 °F 23.3 °F 23.7 °F 72% 30.19 in 10.0 mi WNW 10.4 mph - N/A   Scattered Clouds
11:55 AM 31.6 °F 23.7 °F 23.0 °F 70% 30.19 in 10.0 mi West 9.2 mph - N/A   Scattered Clouds
12:15 PM 31.8 °F 24.6 °F 23.2 °F 70% 30.19 in 10.0 mi West 8.1 mph - N/A   Clear
12:35 PM 32.2 °F 21.4 °F 23.7 °F 71% 30.20 in 10.0 mi West 16.1 mph - N/A   Clear
12:55 PM 32.7 °F 23.4 °F 24.3 °F 71% 30.21 in 10.0 mi WSW 12.7 mph - N/A   Clear
1:15 PM 32.5 °F 22.3 °F 24.1 °F 71% 30.21 in 10.0 mi West 15.0 mph - N/A   Clear
1:35 PM 32.9 °F 22.8 °F 24.4 °F 71% 30.23 in 10.0 mi West 15.0 mph 21.9 mph N/A   Clear
1:55 PM 32.9 °F 22.8 °F 24.4 °F 71% 30.23 in 10.0 mi West 15.0 mph - N/A   Clear
2:15 PM 32.9 °F 22.0 °F 24.4 °F 71% 30.23 in 10.0 mi WNW 17.3 mph - N/A   Clear
2:35 PM 32.9 °F 23.2 °F 24.4 °F 71% 30.23 in 10.0 mi West 13.8 mph - N/A   Clear
2:55 PM 32.9 °F 23.7 °F 23.9 °F 69% 30.24 in 10.0 mi West 12.7 mph - N/A   Clear
3:15 PM 32.9 °F 25.3 °F 24.3 °F 71% 30.25 in 10.0 mi West 9.2 mph - N/A   Clear
3:35 PM 32.5 °F 24.2 °F 23.9 °F 70% 30.25 in 10.0 mi West 10.4 mph - N/A   Clear
3:55 PM 32.5 °F 24.8 °F 24.3 °F 72% 30.25 in 10.0 mi WNW 9.2 mph - N/A   Clear
4:15 PM 32.0 °F 25.6 °F 23.9 °F 72% 30.25 in 10.0 mi WNW 6.9 mph - N/A   Clear
4:35 PM 32.0 °F 24.8 °F 24.8 °F 75% 30.26 in 10.0 mi WNW 8.1 mph - N/A   Clear
4:55 PM 31.5 °F 24.9 °F 23.7 °F 73% 30.27 in 10.0 mi WNW 6.9 mph - N/A   Clear
5:15 PM 30.2 °F 24.3 °F 23.0 °F 75% 30.27 in 10.0 mi West 5.8 mph - N/A   Clear
5:35 PM 29.5 °F 22.5 °F 22.5 °F 75% 30.28 in 10.0 mi WNW 6.9 mph - N/A   Clear
5:55 PM 29.3 °F 25.6 °F 22.1 °F 75% 30.28 in 10.0 mi WNW 3.5 mph - N/A   Clear
6:15 PM 27.9 °F 21.5 °F 21.4 °F 77% 30.28 in 10.0 mi West 5.8 mph - N/A   Clear
6:35 PM 28.0 °F 22.8 °F 22.1 °F 78% 30.29 in 10.0 mi West 4.6 mph - N/A   Clear
6:55 PM 26.8 °F 19.3 °F 20.8 °F 78% 30.29 in 7.0 mi WNW 6.9 mph - N/A   Clear
7:15 PM 28.2 °F 20.2 °F 22.3 °F 78% 30.31 in 7.0 mi WNW 8.1 mph - N/A   Clear
7:35 PM 28.6 °F 21.5 °F 22.1 °F 77% 30.31 in 10.0 mi West 6.9 mph - N/A   Clear
7:55 PM 28.0 °F 19.3 °F 21.9 °F 78% 30.34 in 7.0 mi West 9.2 mph - N/A   Clear
8:15 PM 28.0 °F 20.0 °F 21.7 °F 77% 30.33 in 10.0 mi West 8.1 mph - N/A   Clear
8:35 PM 28.0 °F 21.7 °F 21.6 °F 77% 30.32 in 10.0 mi WNW 5.8 mph - N/A   Clear
8:55 PM 28.0 °F 24.2 °F 21.6 °F 77% 30.31 in 7.0 mi NNW 3.5 mph - N/A   Clear
9:15 PM 26.6 °F - 21.2 °F 80% 30.31 in 7.0 mi Calm Calm - N/A   Clear
9:35 PM 26.2 °F - 20.5 °F 79% 30.29 in 7.0 mi Calm Calm - N/A   Clear
9:55 PM 25.7 °F - 20.5 °F 81% 30.31 in 7.0 mi Calm Calm - N/A   Clear
10:15 PM 26.1 °F - 20.8 °F 81% 30.30 in 7.0 mi Calm Calm - N/A   Clear
10:35 PM 25.2 °F - 20.1 °F 81% 30.30 in 5.0 mi Calm Calm - N/A   Haze
10:55 PM 25.2 °F - 20.3 °F 82% 30.29 in 5.0 mi Calm Calm - N/A   Haze
11:15 PM 23.0 °F - 18.1 °F 82% 30.30 in 5.0 mi Calm Calm - N/A   Haze
11:35 PM 23.0 °F - 18.3 °F 82% 30.31 in 4.0 mi Calm Calm - N/A   Haze
11:55 PM 23.7 °F - 19.2 °F 83% 30.33 in 4.0 mi Calm Calm - N/A   Haze